Whidbey Island, WA
on Thursday, November 22, 2012

Thursday
Previous Day Next Day
Daily Summary
 ActualAverageRecord
Temperature
Mean Temperature °F °F  
Max Temperature 48°F 47°F 51°F (2002)
Min Temperature 39°F 38°F 21°F (2010)
Degree Days
Heating Degree Days 22    
Moisture
Dew Point 36°F   
Average Humidity 71    
Maximum Humidity 89    
Minimum Humidity 61    
Precipitation
Precipitation 0.06 in in in ()
Wind
Wind Speed 11 mph   
Max Wind Speed 25 mph   
Max Gust Speed 34 mph   
Visibility 10 miles   
Events Rain   
Averages and records for this station are not official NWS values.
Key: T is trace of precipitation, MM is missing value
Source: NWS Daily Summary
Seasonal Weather Averages
Time(PST)TemperatureDew PointHumidity Pressure Visibility Wind DirectionWind SpeedGust SpeedPrecipitationEvents Conditions
12:56 AM 39.9°F 37.0°F 89% 30.31 in 10.0 miles ESE 8.1 mph - N/A   Clear
2:56 AM 39.0°F 36.0°F 89% 30.33 in 10.0 miles East 6.9 mph - N/A   Clear
3:56 AM 41.0°F 37.0°F 86% 30.35 in 10.0 miles East 8.1 mph - N/A   Clear
5:56 AM 39.9°F 37.0°F 89% 30.36 in 10.0 miles East 9.2 mph - N/A   Scattered Clouds
8:56 AM 43.0°F 37.0°F 80% 30.36 in 10.0 miles ESE 12.7 mph 23.0 mph N/A   Scattered Clouds
9:56 AM 45.0°F 37.0°F 74% 30.35 in 10.0 miles ESE 11.5 mph - N/A   Overcast
10:56 AM 45.0°F 36.0°F 71% 30.35 in 10.0 miles SE 12.7 mph - N/A   Overcast
11:56 AM 46.0°F 36.0°F 68% 30.34 in 10.0 miles ESE 11.5 mph - N/A   Overcast
12:56 PM 46.0°F 35.1°F 66% 30.32 in 10.0 miles ESE 11.5 mph - N/A   Overcast
1:56 PM 46.0°F 35.1°F 66% 30.31 in 10.0 miles ESE 11.5 mph - N/A   Overcast
2:56 PM 46.0°F 34.0°F 63% 30.30 in 10.0 miles ESE 4.6 mph - N/A   Overcast
3:56 PM 46.0°F 35.1°F 66% 30.29 in 10.0 miles ESE 6.9 mph - N/A   Overcast
4:56 PM 46.0°F 35.1°F 66% 30.27 in 10.0 miles SE 9.2 mph - N/A   Overcast
5:56 PM 46.9°F 34.0°F 61% 30.23 in 10.0 miles ESE 13.8 mph - N/A   Overcast
6:56 PM 46.9°F 34.0°F 61% 30.21 in 10.0 miles ESE 17.3 mph - 0.00 in   Overcast
7:56 PM 46.9°F 35.1°F 63% 30.19 in 10.0 miles ESE 16.1 mph - N/A   Overcast
8:56 PM 48.0°F 35.1°F 61% 30.17 in 10.0 miles SE 17.3 mph 29.9 mph N/A   Overcast
9:56 PM 48.0°F 36.0°F 63% 30.17 in 10.0 miles SE 17.3 mph 25.3 mph N/A   Overcast
10:56 PM 46.0°F 37.0°F 71% 30.16 in 9.0 miles SE 24.2 mph 34.5 mph 0.02 in Rain Light Rain
11:56 PM 45.0°F 37.9°F 76% 30.13 in 8.0 miles SE 25.3 mph 33.4 mph 0.04 in Rain Light Rain
Moon Phase
Nov. 22 Nov. 28 Dec. 06 Dec. 13 Dec. 20
Sunrise:07:29 AM (PST) Moon Rise:01:33 PM (PST)11/22
Sunset:04:24 PM (PST) Moon Set:01:31 AM (PST)11/22

Copyright © 2014 The Weather Underground, Inc.